SCP
0 0 0 0 0 0 0 0 0 0 0 0 0 1 1 1 2 2 2 3 4 5 4 3 4 5 5 5 5 5 5 4 3 3 3 3 3 3 3 3 3 3 3 3
0 0 0 0 0 0 0 0 0 0 0 0 0 1 1 2 2 2 3 3 4 4 3 3 3 4 5 5 5 5 5 4 4 3 3 3 3 3 3 3 3 2 2 3
0 0 0 0 0 0 0 0 0 0 0 0 0 1 1 1 2 2 2 2 2 2 2 2 3 4 5 5 5 5 5 4 4 3 3 3 3 3 3 3 3 3 3 3
0 0 0 0 0 0 0 0 0 0 0 0 0 0 1 1 2 2 2 2 2 2 2 2 3 4 5 5 5 5 4 4 4 4 4 4 3 3 3 3 4 4 3 3
0 0 0 0 0 0 0 0 0 0 0 0 0 0 1 1 1 1 1 2 2 2 2 2 3 5 6 6 5 5 4 4 4 4 4 4 4 3 3 4 4 3 3 2
0 0 0 0 0 0 0 0 0 0 0 0 0 0 1 1 1 1 1 1 2 1 1 2 3 5 6 6 6 6 5 5 5 5 5 5 4 3 3 3 3 2 2 2
0 0 0 0 0 0 0 0 0 0 0 0 0 0 1 1 1 1 1 1 1 1 2 2 3 4 5 7 7 6 5 5 5 5 5 4 3 3 3 3 2 1 2 2
0 0 0 0 0 0 0 0 0 0 0 0 0 1 1 1 1 1 1 1 1 2 2 3 3 4 6 7 7 6 5 5 5 5 5 3 2 3 3 3 2 1 1 1
0 0 0 0 0 0 0 0 0 0 0 0 0 1 1 1 1 1 1 2 2 2 3 3 3 4 5 6 6 6 5 5 5 4 4 3 3 3 3 2 1 1 0 0
0 0 0 0 0 0 0 0 0 0 0 0 0 1 1 1 1 1 2 2 2 2 3 3 3 3 4 5 5 5 5 4 4 3 3 3 3 2 2 1 0 0 0 0
0 0 0 0 0 0 0 0 0 0 0 0 0 0 1 1 1 1 1 2 2 2 3 3 3 3 3 3 3 3 3 2 2 2 3 3 2 1 1 0 0 0 0 0
0 0 0 0 0 0 0 0 0 0 0 0 0 0 1 1 1 1 1 1 2 2 2 3 2 2 2 2 1 1 1 1 1 1 1 1 1 0 0 0 0 0 0 0
0 0 0 0 0 0 0 0 0 0 0 0 0 0 1 1 1 1 1 1 1 2 2 2 2 2 1 1 1 0 0 0 0 0 0 0 0 0 0 0 0 0 0 0
0 0 0 0 0 0 0 0 0 0 0 0 0 0 1 1 1 1 1 1 1 1 1 1 1 1 1 1 0 0 0 0 0 0 0 0 0 0 0 0 0 0 0 0
0 0 0 0 0 0 0 0 0 0 0 0 0 0 1 1 1 1 1 1 1 0 0 0 1 1 1 0 0 0 0 0 0 0 0 0 0 0 0 0 0 0 0 0
0 0 0 0 0 0 0 0 0 0 0 0 0 0 1 1 1 1 1 0 0 0 0 0 0 0 0 0 0 0 0 0 0 0 0 0 0 0 0 0 0 0 0 0
0 0 0 0 0 0 0 0 0 0 0 0 0 0 1 1 1 0 0 0 0 0 0 0 0 0 0 0 0 0 0 0 0 0 0 0 0 0 0 0 0 0 0 0
0 0 0 0 0 0 0 0 0 0 0 0 0 1 1 1 0 0 0 0 0 0 0 0 0 0 0 0 0 0 0 0 0 0 0 0 0 0 0 0 0 0 0 0
0 0 0 0 0 0 0 0 0 0 0 0 0 0 0 0 0 0 0 0 0 0 0 0 0 0 0 0 0 0 0 0 0 0 0 0 0 0 0 0 0 0 0 0
0 0 0 0 0 0 0 0 0 0 0 0 0 0 0 0 0 0 0 0 0 0 0 0 0 0 0 0 0 0 0 0 0 0 0 0 0 0 0 0 0 0 0 0
0 0 0 0 0 0 0 0 0 0 0 0 0 0 0 0 0 0 0 0 0 0 0 0 0 0 0 0 0 0 0 0 0 0 0 0 0 0 0 0 0 0 0 0
0 0 0 0 0 0 0 0 0 0 0 0 0 0 0 0 0 0 0 0 0 0 0 0 0 0 0 0 0 0 0 0 0 0 0 0 0 0 0 0 0 0 0 0
0 0 0 0 0 0 0 0 0 0 0 0 0 0 0 0 0 0 0 0 0 0 0 0 0 0 0 0 0 0 0 0 0 0 0 0 0 0 0 0 0 0 0 0
0 0 0 0 0 0 0 0 0 0 0 0 0 0 0 0 0 0 0 0 0 0 0 0 0 0 0 0 0 0 0 0 0 0 0 0 0 0 0 0 0 0 0 0
0 0 0 0 0 0 0 0 0 0 0 0 0 0 0 0 0 0 0 0 0 0 0 0 0 0 0 0 0 0 0 0 0 0 0 0 0 0 0 0 0 0 0 0
0 0 0 0 0 0 0 0 0 0 0 0 0 0 0 0 0 0 0 0 0 0 0 0 0 0 0 0 0 0 0 0 0 0 0 0 0 0 0 0 0 0 0 0
Wind_Speed
5 8 6 1 3 6 7 8 8 5 2 6 6 3 0 2 2 2 3 3 4 5 6 7 6 5 3 3 4 6 8 8 7 7 7 7 7 6 5 4 5 6 6 7
8 9 4 3 4 7 8 9 8 4 2 5 5 3 2 2 3 4 4 4 5 6 7 7 7 7 6 3 2 3 5 6 6 6 6 5 5 4 3 3 2 3 4 5
10 2 1 6 7 8 9 9 8 7 4 7 7 7 7 5 5 5 5 5 6 7 7 8 8 7 6 6 4 2 2 3 4 5 5 4 4 3 2 3 3 2 2 3
8 5 6 10 10 10 10 6 8 9 10 8 9 8 8 7 6 5 6 6 7 7 7 8 8 8 7 6 4 3 3 3 3 4 5 7 5 5 4 4 4 5 5 5
7 6 9 11 10 10 11 8 9 11 11 10 9 10 5 8 6 5 6 7 7 7 8 8 8 7 7 6 5 5 5 5 4 3 4 6 6 6 6 7 8 7 7 8
12 8 8 10 10 8 10 10 10 11 11 12 9 9 4 5 5 6 7 8 8 8 9 9 9 9 9 8 7 6 6 7 6 6 6 7 9 9 10 9 8 6 6 7
9 8 7 7 10 8 9 11 9 9 9 8 4 6 0 3 4 7 8 8 8 8 9 9 10 10 9 9 9 8 8 9 8 9 9 9 10 11 10 8 8 7 6 7
8 6 2 4 7 7 8 11 10 9 7 3 4 3 5 7 8 9 10 10 9 9 9 10 10 10 10 10 10 9 10 10 10 11 10 11 11 9 9 10 9 9 8 8
6 5 1 3 5 7 7 8 7 10 10 7 3 4 6 7 8 9 9 10 9 9 9 10 10 10 10 11 11 11 11 12 12 12 13 12 12 12 12 12 11 10 9 9
6 8 4 2 6 8 8 7 5 8 7 8 5 6 5 11 10 9 9 9 9 8 9 9 9 10 10 10 11 12 13 13 13 12 12 11 13 12 13 13 13 12 11 10
5 7 5 5 6 5 6 7 8 8 8 7 5 0 4 8 11 11 10 9 9 8 8 8 9 9 10 11 12 12 13 13 13 13 13 14 13 13 13 13 12 11 11 11
4 6 7 4 0 3 6 7 8 8 8 7 7 2 5 6 11 13 12 10 9 9 9 9 9 9 10 11 12 12 12 13 12 12 13 14 13 14 13 13 12 12 11 11
4 6 7 5 6 6 6 5 7 8 8 8 8 3 7 10 12 12 13 11 10 9 9 9 9 9 10 10 11 11 12 12 12 12 13 13 13 13 13 12 11 11 11 11
4 6 8 8 5 4 5 5 6 8 8 8 6 4 8 11 12 12 12 11 10 10 9 9 9 9 10 10 11 11 12 12 12 13 13 13 13 13 12 12 12 11 11 11
6 7 6 7 5 5 6 5 5 6 7 8 3 3 9 12 13 13 12 12 11 10 10 9 9 9 10 10 11 11 12 12 12 13 13 13 12 12 11 11 11 10 10 10
5 7 6 6 5 6 6 4 4 3 4 3 2 3 9 13 13 13 13 13 12 11 10 10 10 10 10 10 11 11 11 11 11 13 13 12 11 11 11 10 10 10 10 9
6 6 6 5 3 7 6 2 3 1 1 2 2 5 14 14 13 14 14 13 12 12 11 11 10 9 9 10 11 11 11 11 11 12 11 10 10 10 9 10 10 9 9 9
6 6 5 5 5 6 3 3 1 1 0 1 3 10 12 12 11 11 12 14 13 12 12 11 10 9 9 10 10 11 11 10 11 11 10 10 9 9 9 9 9 8 8 8
5 6 5 5 6 4 5 4 3 3 1 2 7 12 13 15 12 8 9 11 12 12 12 11 11 10 10 10 10 10 10 10 10 10 9 9 8 9 8 8 8 7 7 7
6 7 7 6 7 4 5 5 1 4 3 6 10 14 15 14 8 7 11 12 13 12 11 12 11 11 11 10 9 10 10 9 9 9 8 8 7 8 8 7 7 7 6 6
8 7 8 8 7 1 6 3 4 5 4 10 11 14 14 8 6 15 15 14 13 13 13 12 11 10 10 9 9 10 9 9 8 8 8 7 7 7 7 6 6 6 6 6
6 5 5 5 5 3 5 3 1 5 7 10 12 12 11 12 17 17 16 15 15 14 14 13 11 10 10 9 9 9 9 8 8 7 7 7 6 5 6 6 6 5 5 6
4 4 3 3 5 6 3 4 5 5 9 11 12 14 15 16 17 17 16 15 14 14 13 12 12 12 10 9 8 10 9 7 7 7 7 7 6 5 5 5 5 5 3 4
4 1 2 4 6 6 5 6 6 8 11 12 14 15 16 17 17 16 15 13 13 12 12 11 12 11 10 9 9 9 8 7 7 6 6 6 5 6 5 3 4 4 4 4
4 6 4 4 8 8 6 7 10 11 14 15 15 15 15 18 17 16 14 14 12 11 10 10 10 11 11 10 9 8 7 6 6 6 5 5 5 6 5 6 6 5 8 7
6 5 4 2 10 8 10 10 13 15 15 15 15 15 15 16 17 16 14 13 12 12 10 10 10 11 11 10 9 7 6 6 5 5 4 4 5 4 5 6 7 8 7 6
Wind_Direction
203 238 237 277 295 307 301 292 290 291 276 263 259 248 270 31 21 33 32 45 58 57 48 46 43 46 82 130 171 189 191 193 185 182 188 195 201 203 193 193 196 200 205 206
219 229 242 269 271 272 273 277 278 268 227 260 251 220 153 83 63 52 46 43 46 48 45 41 38 43 45 58 98 158 185 188 189 191 191 192 186 187 176 160 157 187 195 195
252 288 168 256 255 262 267 277 294 296 268 241 237 218 181 144 108 86 74 63 54 48 43 39 35 34 36 39 45 86 143 163 174 175 173 161 154 149 157 145 111 80 102 127
253 254 243 258 266 269 275 284 286 277 263 245 230 252 175 167 141 110 90 75 62 53 45 39 34 32 29 33 42 59 84 97 127 153 162 166 170 163 150 119 97 76 70 80
245 239 257 269 279 277 283 297 280 271 265 266 237 255 184 171 175 134 106 86 69 56 48 43 36 37 36 35 51 59 72 74 79 102 140 149 139 119 108 105 96 82 72 72
268 271 273 281 284 273 276 267 257 251 250 250 243 251 227 184 186 142 113 92 74 62 52 46 39 38 38 40 51 62 72 72 70 74 82 97 110 113 114 111 104 95 84 73
253 244 225 256 267 238 243 254 248 237 231 241 219 242 123 101 115 131 118 96 80 66 58 49 41 40 39 45 49 58 68 68 70 76 77 83 92 97 99 100 98 94 84 77
282 277 206 234 268 284 257 259 266 279 275 246 201 233 94 93 97 105 105 96 82 69 63 58 50 46 45 49 53 59 69 71 71 76 78 81 86 89 88 86 87 84 82 81
288 300 142 248 266 268 262 250 283 283 277 272 220 139 126 123 118 113 108 96 81 72 68 65 58 52 52 54 55 60 70 73 74 78 81 79 80 86 89 88 85 83 83 84
281 286 274 222 237 224 269 290 259 258 274 269 236 216 192 170 161 143 125 108 95 84 75 69 66 61 60 63 67 68 70 74 76 79 81 83 83 85 88 89 87 87 87 87
254 269 265 226 244 258 222 230 253 268 275 281 273 155 39 164 159 148 130 119 110 99 87 78 72 67 69 70 72 74 74 76 77 79 83 85 87 87 87 87 86 86 85 84
226 273 278 260 114 287 267 270 263 268 272 269 282 82 57 123 140 138 130 122 114 106 99 92 86 81 77 76 76 76 78 80 80 83 86 86 87 88 86 85 85 84 83 84
191 252 268 217 186 200 233 249 263 269 278 276 276 117 92 114 124 129 128 125 122 115 108 100 92 88 85 83 83 83 83 84 86 88 88 87 86 87 86 86 85 85 86 85
236 261 280 297 326 306 260 255 255 260 269 274 272 149 144 136 134 133 131 129 124 120 115 107 100 95 94 93 93 92 90 91 92 91 90 88 87 87 87 88 87 87 87 87
240 263 270 279 281 272 274 281 274 268 281 289 293 152 154 152 145 139 136 133 130 125 118 113 109 105 103 100 97 95 95 94 95 94 92 91 91 90 90 88 88 89 89 89
230 271 271 261 244 246 252 261 271 277 285 276 213 112 131 135 135 139 143 141 137 132 127 120 116 114 110 109 106 103 101 102 101 99 99 100 100 97 93 92 92 89 86 85
217 248 268 269 251 253 246 235 255 268 333 292 281 127 137 141 148 152 152 147 142 140 136 129 125 120 118 115 114 112 111 109 105 103 103 102 101 99 98 98 95 92 90 88
236 247 266 277 257 260 75 89 253 252 110 360 94 131 146 144 140 142 149 145 142 143 137 132 128 121 119 118 117 115 114 112 108 106 104 104 103 99 98 96 94 95 95 93
238 245 267 275 276 278 139 160 190 245 209 108 133 133 128 122 115 117 135 139 142 141 136 132 130 128 126 123 123 121 118 115 110 106 105 103 102 100 97 94 95 97 99 98
204 234 258 271 291 310 89 110 155 257 188 134 143 143 144 151 150 141 141 136 134 134 132 132 132 132 130 129 131 126 122 118 112 107 105 103 99 94 91 91 94 96 100 101
200 214 244 268 279 30 86 113 209 260 80 138 149 152 158 166 121 131 137 135 134 133 135 135 135 134 133 137 136 129 126 118 112 110 107 103 99 95 92 93 96 101 100 97
237 238 240 266 276 78 97 169 289 53 108 137 143 146 136 113 116 128 134 136 138 138 141 141 138 134 137 141 137 128 120 117 117 114 108 103 97 93 98 98 97 98 105 116
248 324 337 357 41 80 80 66 74 107 128 134 136 133 129 127 131 133 136 138 141 142 142 144 143 139 141 144 138 126 124 127 124 118 111 107 102 92 92 98 104 109 112 107
153 168 173 138 116 115 110 106 110 120 127 130 131 132 134 133 135 136 137 138 140 139 142 147 147 143 143 144 133 128 131 131 125 119 116 115 114 109 95 83 83 86 90 96
136 175 181 142 130 133 125 121 122 121 124 126 130 133 135 136 138 139 139 141 142 141 146 150 147 144 143 141 136 137 138 139 132 128 125 122 111 102 99 78 52 51 60 37
175 187 213 169 159 152 135 133 132 131 130 131 130 129 136 137 137 139 139 140 142 144 148 148 147 144 143 144 144 144 144 144 140 140 136 125 117 119 118 119 111 60 63 76